Regional Weather Roundup
Issued by NWS State College, PA

Home | Current Version | Previous Version | Text Only | Print | Product List | Glossary On
Versions: 1 2 3 4 5 6 7 8 9 10 11 12 13 14 15 16 17 18 19 20 21 22 23 24 25 26 27 28 29 30 31 32 33 34 35 36 37 38 39 40 41 42 43 44 45 46 47 48 49 50
950
ASUS41 KCTP 260810
RWRCTP

REGIONAL WEATHER ROUNDUP
NATIONAL WEATHER SERVICE STATE COLLEGE PA
400 AM EDT SUN MAR 26 2017

Note: "fair" indicates few or no clouds below 12,000 feet with no
significant weather and/or obstructions to visibility.

* = STATION THAT DOES NOT REPORT PRECIPITATION /E.G. RAIN...SNOW...ETC/
    THUNDER OR FOG.

PAZ002>004-007>009-013>016-020>023-029>032-260900-
WESTERN PENNSYLVANIA

CITY           SKY/WX    TMP DP  RH WIND       PRES   REMARKS
ERIE           PTCLDY    37  35  92 NE8       30.12F
MEADVILLE      MOCLDY    52  45  77 E8G17     30.10F
FRANKLIN*      CLOUDY    52  43  71 E9        30.14F
NEW CASTLE     PTSUNNY   57  50  77 VRB6      30.10F
BEAVER COUNTY  NOT AVBL
BUTLER*        PTCLDY    55  46  71 E14       30.12F
PITTSBURGH INT CLOUDY    59  51  75 SE8       30.09S
PITTSBURGH     MOCLDY    58  48  69 E8        30.10S
INDIANA*       CLOUDY    52  46  82 E8        30.18S
LATROBE        MOCLDY    59  48  67 SE12      30.13S
WASHINGTON CO* CLOUDY    57  48  72 CALM      30.11F
$$

PAZ004>006-010>012-017>019-024>028-033>037-041-042-045-046-049>053-260900-
CENTRAL PENNSYLVANIA

CITY           SKY/WX    TMP DP  RH WIND       PRES   REMARKS
BRADFORD       CLOUDY    41  39  93 SE9       30.19F
DUBOIS         PTCLDY    45  40  82 E13       30.17F
CLEARFIELD       N/A    N/A N/A N/A MISG      30.23F
JOHNSTOWN      PTCLDY    48  45  89 E8        30.17S
ALTOONA        CLOUDY    49  44  83 NE6       30.23S
STATE COLLEGE  CLOUDY    43  39  87 NE6       30.26S
WILLIAMSPORT   CLOUDY    45  39  79 E12       30.32S
SELINSGROVE    CLOUDY    45  39  79 SE7       30.32S
FT INDIANTOWN  CLOUDY    43  43  99 E9        30.32S
CAPITAL CITY   CLOUDY    48  39  71 E13       30.31S
HARRISBURG     CLOUDY    47  40  76 E12       30.31S
YORK           CLOUDY    46  40  79 E9        30.30R
$$

PAZ038>040-043-044-047-048-054-055-060>062-067>071-260900-
EASTERN PENNSYLVANIA

CITY           SKY/WX    TMP DP  RH WIND       PRES   REMARKS
SCRANTON       CLOUDY    39  33  79 E5        30.34R
MOUNT POCONO   CLOUDY    31  31 100 E13G21    30.30F
ALLENTOWN      CLOUDY    40  34  79 NE13      30.36F
QUAKERTOWN*    CLOUDY    41  37  87 E7        30.36S
READING        CLOUDY    44  41  89 E9        30.33F
LANCASTER      CLOUDY    45  41  86 E15       30.32S
COATESVILLE    CLOUDY    43  39  87 E10G26    30.32F
POTTSTOWN      CLOUDY    42  38  85 E6G16     30.36S
BLUE BELL      CLOUDY    41  37  87 E7        30.34S
DOYLESTOWN     CLOUDY    42  38  85 VRB3      30.35S
WILLOW GROVE   NOT AVBL
NORTH PHILA    CLOUDY    44  39  82 NE14      30.37S
PHILADELPHIA   CLOUDY    44  38  79 NE10      30.36R
$$




USA.gov is the U.S. government's official web portal to all federal, state and local government web resources and services.